E7739 Weather Reports


time (UTC)temp
F
wind
direction
speed
knots
gust
knots
rain 1hr
in
rain 24hr
in
rain mn
in
humidity
%
barometer
mb
20260906131346 72 69 2.6 7.8 0.00 0.00 0.00 85 1016.9
20260906130841 72 344 2.6 8.7 0.00 0.00 0.00 86 1016.9
20260906130341 72 68 2.6 9.6 0.00 0.00 0.00 86 1016.8
20260906125839 72 69 3.5 9.6 0.00 0.00 0.00 87 1016.8
20260906125341 72 79 3.5 9.6 0.00 0.00 0.00 87 1016.8
20260906124337 72 58 2.6 6.1 0.00 0.00 0.00 87 1016.8
20260906123835 72 29 1.7 6.1 0.00 0.00 0.00 88 1016.8
20260906123335 71 21 1.7 4.3 0.00 0.00 0.00 89 1016.4
20260906122833 71 96 1.7 6.1 0.00 0.00 0.00 90 1016.4
20260906121834 70 70 2.6 5.2 0.00 0.00 0.00 91 1016.0
20260906120830 70 35 1.7 4.3 0.00 0.00 0.00 92 1016.0
20260906120330 70 81 1.7 5.2 0.00 0.00 0.00 92 1015.8
20260906115825 70 58 2.6 6.1 0.00 0.00 0.00 93 1015.8
20260906114810 70 55 2.6 7.8 0.00 0.00 0.00 93 1015.5
20260906114300 70 17 2.6 6.1 0.00 0.00 0.00 92 1015.5
20260906113748 70 58 1.7 5.2 0.00 0.00 0.00 92 1015.5
20260906113248 70 52 2.6 6.1 0.00 0.00 0.00 92 1015.1
20260906112742 70 85 2.6 6.1 0.00 0.00 0.00 92 1015.1
20260906112238 71 86 2.6 8.7 0.00 0.00 0.00 92 1015.1
20260906111236 71 70 3.5 5.2 0.00 0.00 0.00 92 1015.0
20260906110734 71 65 2.6 9.6 0.00 0.00 0.00 93 1015.0
20260906110229 71 61 2.6 9.6 0.00 0.00 0.00 93 1015.0
20260906105731 71 75 2.6 6.1 0.00 0.00 0.00 94 1015.0
20260906105220 71 73 2.6 6.1 0.00 0.00 0.00 94 1015.0
20260906104724 71 52 2.6 5.2 0.00 0.00 0.00 94 1014.6
20260906104208 71 102 1.7 5.2 0.00 0.00 0.00 94 1014.6
20260906103705 71 56 1.7 4.3 0.00 0.00 0.00 94 1014.5
20260906103206 71 42 1.7 4.3 0.00 0.00 0.00 94 1014.5
20260906102706 71 45 1.7 4.3 0.00 0.00 0.00 94 1014.5
20260906102201 71 44 2.6 8.7 0.00 0.00 0.00 94 1014.4
20260906101702 71 58 2.6 8.7 0.00 0.00 0.00 94 1014.4
20260906101202 71 58 1.7 6.1 0.00 0.00 0.00 94 1014.4
20260906100650 71 54 1.7 5.2 0.00 0.00 0.00 94 1014.4
20260906100135 71 86 1.7 5.2 0.00 0.00 0.00 94 1014.4
20260906095618 71 7 1.7 5.2 0.00 0.00 0.00 94 1014.4
20260906095108 71 67 1.7 5.2 0.00 0.00 0.00 94 1014.3
20260906094557 71 51 1.7 7.8 0.00 0.00 0.00 94 1014.3
20260906094049 71 23 1.7 7.8 0.00 0.00 0.00 94 1014.3
20260906093039 71 48 1.7 5.2 0.00 0.00 0.00 94 1014.4
20260906092527 71 52 2.6 6.1 0.00 0.00 0.00 93 1014.4
20260906092018 71 73 1.7 6.1 0.00 0.00 0.00 93 1014.3
20260906091010 71 17 2.6 5.2 0.00 0.00 0.00 93 1014.3
20260906090509 71 44 2.6 4.3 0.00 0.00 0.00 93 1014.4
20260906085508 71 28 1.7 3.5 0.00 0.00 0.00 93 1014.4
20260906084452 71 48 0.9 3.5 0.00 0.00 0.00 93 1014.3
20260906083950 71 31 1.7 4.3 0.00 0.00 0.00 93 1014.3
20260906082452 71 40 2.6 5.2 0.00 0.00 0.00 92 1014.4
20260906081941 71 55 2.6 6.1 0.00 0.00 0.00 92 1014.4
20260906081440 71 31 2.6 6.1 0.00 0.00 0.00 92 1014.4
20260906080940 71 51 2.6 6.1 0.00 0.00 0.00 92 1014.4
20260906080441 71 75 2.6 5.2 0.00 0.00 0.00 92 1014.4
20260906075929 71 25 2.6 5.2 0.00 0.00 0.00 92 1014.4
20260906075420 71 12 2.6 6.1 0.00 0.00 0.00 92 1014.4
20260906074404 71 42 1.7 4.3 0.00 0.00 0.00 92 1014.4
20260906073853 71 38 1.7 3.5 0.00 0.00 0.00 92 1014.4
20260906072843 71 40 1.7 5.2 0.00 0.00 0.00 92 1014.4
20260906072335 71 42 1.7 5.2 0.00 0.00 0.00 92 1014.4
20260906071317 71 50 2.6 5.2 0.00 0.00 0.00 92 1014.5
20260906070807 71 58 2.6 4.3 0.00 0.00 0.00 92 1014.5
20260906070306 71 42 2.6 7.8 0.00 0.00 0.00 92 1014.6
20260906065804 71 75 2.6 7.8 0.00 0.00 0.00 92 1014.6
20260906065306 71 350 2.6 6.1 0.00 0.00 0.00 92 1014.6
20260906064806 70 63 1.7 5.2 0.00 0.00 0.00 92 1014.7
20260906063802 70 32 1.7 4.3 0.00 0.00 0.00 92 1014.7
20260906063257 70 52 1.7 4.3 0.00 0.00 0.00 93 1014.8
20260906062757 70 358 2.6 5.2 0.00 0.00 0.00 93 1014.8
20260906062258 70 27 2.6 6.1 0.00 0.00 0.00 93 1014.8
20260906061757 70 7 2.6 6.1 0.00 0.00 0.00 93 1014.9
20260906060752 70 29 3.5 8.7 0.00 0.00 0.00 93 1014.9
20260906060250 70 27 2.6 8.7 0.00 0.00 0.00 92 1014.8
20260906055752 70 30 2.6 5.2 0.00 0.00 0.00 92 1014.8
20260906055247 70 66 2.6 6.1 0.00 0.00 0.00 92 1014.8
20260906054736 70 338 3.5 8.7 0.00 0.00 0.00 92 1014.6
20260906054231 70 358 3.5 8.7 0.00 0.00 0.00 92 1014.6
20260906053724 70 1 2.6 7.8 0.00 0.00 0.00 92 1014.6
20260906053217 70 30 2.6 6.1 0.00 0.00 0.00 92 1014.4
20260906052707 70 52 2.6 7.0 0.00 0.00 0.00 92 1014.4
20260906051655 70 7 3.5 7.8 0.00 0.00 0.00 92 1014.4
20260906051154 70 52 3.5 7.8 0.00 0.00 0.00 91 1014.4
20260906050633 70 12 3.5 9.6 0.00 0.00 0.00 91 1014.3
20260906050122 70 40 2.6 9.6 0.00 0.00 0.00 91 1014.3
20260906045616 71 51 2.6 6.1 0.00 0.00 0.00 91 1014.3
20260906045106 71 23 2.6 7.0 0.00 0.00 0.00 91 1014.0
20260906044552 71 97 3.5 8.7 0.00 0.00 0.00 91 1014.0
20260906044046 71 34 3.5 8.7 0.00 0.00 0.00 91 1014.0
20260906043540 71 45 2.6 7.0 0.00 0.00 0.00 91 1013.8
20260906043034 71 38 3.5 7.8 0.00 0.00 0.00 91 1013.8
20260906042020 72 73 2.6 8.7 0.00 0.00 0.00 91 1013.8
20260906041514 72 53 3.5 8.7 0.00 0.00 0.00 91 1013.8
20260906040453 72 36 2.6 8.7 0.00 0.00 0.00 91 1013.7
20260906035943 72 81 2.6 8.7 0.00 0.00 0.00 91 1013.7
20260906035440 73 61 2.6 7.8 0.00 0.00 0.00 91 1013.7
20260906034420 73 90 2.6 9.6 0.00 0.00 0.00 90 1013.7
20260906033910 73 49 2.6 7.8 0.00 0.00 0.00 90 1013.7
20260906033400 73 56 2.6 7.8 0.00 0.00 0.00 90 1013.5
20260906032854 73 83 2.6 6.1 0.00 0.00 0.00 90 1013.5
20260906032344 74 59 2.6 6.1 0.00 0.00 0.00 90 1013.5
20260906031840 74 42 2.6 6.1 0.00 0.00 0.00 90 1013.7
20260906031336 74 52 2.6 6.1 0.00 0.00 0.00 89 1013.7
20260906030835 74 66 1.7 5.2 0.00 0.00 0.00 89 1013.7
20260906030334 74 104 1.7 5.2 0.00 0.00 0.00 89 1013.4
20260906025830 74 58 2.6 6.1 0.00 0.00 0.00 89 1013.4
20260906025327 75 79 2.6 6.1 0.00 0.00 0.00 88 1013.4
20260906024828 75 79 2.6 6.1 0.00 0.00 0.00 88 1013.4
20260906024327 75 71 2.6 6.1 0.00 0.00 0.00 87 1013.4
20260906023828 75 51 2.6 7.8 0.00 0.00 0.00 87 1013.4
20260906023322 76 46 3.5 7.8 0.00 0.00 0.00 87 1013.2
20260906022820 76 54 3.5 8.7 0.00 0.00 0.00 87 1013.2
20260906022308 76 65 2.6 8.7 0.00 0.00 0.00 87 1013.2
20260906021752 76 43 2.6 6.1 0.00 0.00 0.00 87 1012.9
20260906020728 77 73 2.6 5.2 0.00 0.00 0.00 86 1012.9
20260906020216 77 44 3.5 7.8 0.00 0.00 0.00 85 1012.8
20260906015700 78 77 3.5 9.6 0.00 0.00 0.00 85 1012.8
20260906015146 78 17 4.3 9.6 0.00 0.00 0.00 85 1012.7
20260906014636 78 38 4.3 9.6 0.00 0.00 0.00 84 1012.7
20260906014131 78 325 4.3 12.2 0.00 0.00 0.00 84 1012.7
20260906013630 78 0 3.5 12.2 0.00 0.00 0.00 84 1012.5
20260906013128 79 12 2.6 6.1 0.00 0.00 0.00 84 1012.5
20260906012629 79 58 2.6 6.1 0.00 0.00 0.00 84 1012.5
20260906012130 79 47 2.6 6.1 0.00 0.00 0.00 84 1012.3
20260906011627 80 3 3.5 7.8 0.00 0.00 0.00 84 1012.3
20260906011129 80 34 3.5 7.8 0.00 0.00 0.00 83 1012.3
20260906010616 80 12 3.5 7.8 0.00 0.00 0.00 83 1012.2
20260906005551 81 7 2.6 6.1 0.00 0.00 0.00 82 1012.2
20260906005046 82 88 2.6 6.1 0.00 0.00 0.00 81 1012.1
20260906004541 82 60 3.5 9.6 0.00 0.00 0.00 81 1012.1
20260906004035 83 21 4.3 9.6 0.00 0.00 0.00 80 1012.1
20260906003525 83 7 4.3 11.3 0.00 0.00 0.00 79 1011.7
20260906003019 83 31 4.3 11.3 0.00 0.00 0.00 78 1011.7
20260906002513 84 37 3.5 7.8 0.00 0.00 0.00 78 1011.7
20260906002003 84 36 3.5 8.7 0.00 0.00 0.00 78 1011.7
20260906001457 84 12 3.5 8.7 0.00 0.00 0.00 78 1011.7
20260906000433 85 46 3.5 7.8 0.00 0.00 0.00 77 1011.6
20260905235925 85 21 3.5 7.8 0.00 0.00 0.00 76 1011.6
20260905234912 86 7 3.5 9.6 0.00 0.00 0.00 75 1011.7
20260905234408 86 51 5.2 9.6 0.00 0.00 0.00 75 1011.7
20260905233908 87 339 4.3 11.3 0.00 0.00 0.00 74 1011.7
20260905232900 87 12 4.3 8.7 0.00 0.00 0.00 74 1011.6
20260905232402 88 12 4.3 9.6 0.00 0.00 0.00 73 1011.6
20260905231856 88 49 4.3 9.6 0.00 0.00 0.00 72 1011.4
20260905225858 89 38 5.2 9.6 0.00 0.00 0.00 69 1011.2
20260905225358 90 49 5.2 10.4 0.00 0.00 0.00 68 1011.2
20260905224338 91 44 4.3 9.6 0.00 0.00 0.00 67 1011.2
20260905223828 91 63 3.5 7.8 0.00 0.00 0.00 67 1011.2
20260905222305 91 32 3.5 9.6 0.00 0.00 0.00 68 1011.2
20260905221756 91 28 4.3 9.6 0.00 0.00 0.00 68 1011.2
20260905221245 91 1 5.2 11.3 0.00 0.00 0.00 68 1011.2
20260905220233 92 2 5.2 11.3 0.00 0.00 0.00 66 1011.1
20260905215728 92 27 3.5 9.6 0.00 0.00 0.00 67 1011.1
20260905214707 92 7 2.6 7.8 0.00 0.00 0.00 66 1011.1
20260905214158 92 344 2.6 6.1 0.00 0.00 0.00 68 1011.1
20260905213652 91 21 3.5 7.8 0.00 0.00 0.00 67 1011.1
20260905213141 92 17 3.5 7.8 0.00 0.00 0.00 67 1011.1
20260905212125 93 12 3.5 8.7 0.00 0.00 0.00 66 1011.1
20260905211616 93 346 4.3 8.7 0.00 0.00 0.00 66 1011.1
20260905211105 93 21 3.5 7.8 0.00 0.00 0.00 65 1011.1
20260905210605 93 39 3.5 8.7 0.00 0.00 0.00 66 1011.5
20260905210105 93 21 3.5 8.7 0.00 0.00 0.00 67 1011.5
20260905205605 92 36 4.3 8.7 0.00 0.00 0.00 65 1011.5
20260905205106 93 7 4.3 9.6 0.00 0.00 0.00 66 1011.4
20260905204604 93 343 4.3 9.6 0.00 0.00 0.00 66 1011.4
20260905204101 93 50 3.5 8.7 0.00 0.00 0.00 67 1011.4
20260905203559 93 38 4.3 9.6 0.00 0.00 0.00 66 1011.5
20260905203055 93 49 4.3 9.6 0.00 0.00 0.00 66 1011.5
20260905202554 93 7 4.3 7.8 0.00 0.00 0.00 66 1011.5
20260905202052 93 12 3.5 7.8 0.00 0.00 0.00 66 1011.4
20260905201053 94 12 3.5 8.7 0.00 0.00 0.00 65 1011.4
20260905200553 94 44 4.3 8.7 0.00 0.00 0.00 64 1011.5
20260905200044 94 34 4.3 9.6 0.00 0.00 0.00 62 1011.5
20260905195546 95 25 4.3 10.4 0.00 0.00 0.00 64 1011.5
20260905195043 95 21 2.6 10.4 0.00 0.00 0.00 61 1011.5
20260905194544 96 7 1.7 4.3 0.00 0.00 0.00 63 1011.5
20260905194034 95 21 1.7 7.8 0.00 0.00 0.00 63 1011.5
20260905193529 95 321 3.5 8.7 0.00 0.00 0.00 63 1011.5
20260905193029 94 54 3.5 8.7 0.00 0.00 0.00 62 1011.5
20260905192509 94 29 2.6 7.8 0.00 0.00 0.00 65 1011.5
20260905191958 94 7 3.5 8.7 0.00 0.00 0.00 64 1011.6
20260905191451 94 306 2.6 8.7 0.00 0.00 0.00 61 1011.6
20260905190947 94 7 2.6 6.1 0.00 0.00 0.00 67 1011.6
20260905190440 94 330 2.6 6.1 0.00 0.00 0.00 65 1011.7
20260905185932 94 7 1.7 5.2 0.00 0.00 0.00 63 1011.7
20260905185425 94 321 0.9 3.5 0.00 0.00 0.00 64 1011.7
20260905184916 94 21 0.9 3.5 0.00 0.00 0.00 63 1012.0
20260905184406 94 310 1.7 10.4 0.00 0.00 0.00 62 1012.0
20260905183855 94 337 1.7 10.4 0.00 0.00 0.00 63 1012.0
20260905183345 94 334 1.7 5.2 0.00 0.00 0.00 61 1012.1
20260905182331 95 7 1.7 5.2 0.00 0.00 0.00 61 1012.1
20260905181819 95 323 1.7 4.3 0.00 0.00 0.00 62 1012.1
20260905181304 95 7 2.6 6.1 0.00 0.00 0.00 63 1012.1
20260905180807 94 2 1.7 6.1 0.00 0.00 0.00 61 1012.1
20260905175754 94 353 1.7 4.3 0.00 0.00 0.00 66 1012.1
20260905175255 94 322 2.6 8.7 0.00 0.00 0.00 68 1012.1
20260905174748 94 29 3.5 8.7 0.00 0.00 0.00 63 1012.2
20260905173239 94 25 1.7 5.2 0.00 0.00 0.00 64 1012.2
20260905172732 94 7 0.9 3.5 0.00 0.00 0.00 64 1012.2
20260905171719 94 321 0.9 3.5 0.00 0.00 0.00 63 1012.3
20260905171207 94 336 1.7 5.2 0.00 0.00 0.00 62 1012.3
20260905170655 94 40 1.7 6.1 0.00 0.00 0.00 64 1012.5
20260905170140 94 43 1.7 6.1 0.00 0.00 0.00 64 1012.5
20260905165131 94 12 1.7 8.7 0.00 0.00 0.00 63 1012.6
20260905164626 94 327 1.7 8.7 0.00 0.00 0.00 63 1012.6
20260905164127 93 341 1.7 6.1 0.00 0.00 0.00 63 1012.6
20260905163621 93 291 1.7 7.8 0.00 0.00 0.00 64 1012.6
20260905162619 92 277 0.9 3.5 0.00 0.00 0.00 67 1012.6
20260905162111 92 355 0.9 3.5 0.00 0.00 0.00 65 1012.6
20260905161608 92 318 0.9 3.5 0.00 0.00 0.00 65 1012.6
20260905161109 92 56 1.7 3.5 0.00 0.00 0.00 68 1012.6
20260905160601 92 29 1.7 4.3 0.00 0.00 0.00 68 1012.5
20260905160052 92 226 0.9 4.3 0.00 0.00 0.00 68 1012.5
20260905155549 92 327 1.7 4.3 0.00 0.00 0.00 67 1012.5
20260905155038 92 357 1.7 5.2 0.00 0.00 0.00 67 1012.6
20260905153508 91 345 0.9 3.5 0.00 0.00 0.00 70 1012.6
20260905153000 90 349 0.9 3.5 0.00 0.00 0.00 74 1012.6
20260905152457 90 305 0.9 4.3 0.00 0.00 0.00 69 1012.6
20260905151956 89 319 0.9 4.3 0.00 0.00 0.00 70 1012.6
20260905151451 89 21 0.0 1.7 0.00 0.00 0.00 73 1012.6
20260905150951 88 7 0.9 2.6 0.00 0.00 0.00 75 1012.6
20260905145941 88 288 0.9 3.5 0.00 0.00 0.00 74 1012.3
20260905145434 88 293 0.0 1.7 0.00 0.00 0.00 73 1012.3
20260905144935 87 287 0.0 1.7 0.00 0.00 0.00 75 1012.2
20260905144416 87 287 0.0 1.7 0.00 0.00 0.00 74 1012.2
20260905143917 87 287 0.0 2.6 0.00 0.00 0.00 76 1012.2
20260905142834 87 287 0.0 1.7 0.00 0.00 0.00 74 1012.2
20260905142325 86 296 0.0 1.7 0.00 0.00 0.00 75 1012.2
20260905141821 86 296 0.0 1.7 0.00 0.00 0.00 76 1012.2
20260905141310 85 271 0.0 1.7 0.00 0.00 0.00 76 1012.2
20260905140800 85 271 0.0 1.7 0.00 0.00 0.00 76 1012.2
20260905140248 84 271 0.9 2.6 0.00 0.00 0.00 76 1012.5
20260905135740 84 271 0.9 2.6 0.00 0.00 0.00 77 1012.5
20260905135233 83 277 0.9 2.6 0.00 0.00 0.00 78 1012.5
20260905134724 83 244 0.0 1.7 0.00 0.00 0.00 79 1012.6
20260905134210 83 244 0.0 0.9 0.00 0.00 0.00 81 1012.6
20260905133709 83 244 0.9 1.7 0.00 0.00 0.00 79 1012.6
20260905133153 82 244 0.9 2.6 0.00 0.00 0.00 81 1012.4
20260905132654 82 244 0.9 2.6 0.00 0.00 0.00 83 1012.4